| time (UTC) | temp C | wind direction | speed KPH | gust KPH | rain 1hr cm | rain 24hr cm | rain mn cm | humidity % | barometer mb |
| 20260504050015 | 13 | 360 | 1.6 | 14.5 | 0.00 | 0.00 | 0.00 | 42 | 1019.5 |
| 20260504044530 | 13 | 360 | 0.0 | 9.7 | 0.00 | 0.00 | 0.00 | 41 | 1019.5 |
| 20260504043014 | 13 | 360 | 3.2 | 16.1 | 0.00 | 0.00 | 0.00 | 40 | 1019.3 |
| 20260504041508 | 13 | 360 | 3.2 | 9.7 | 0.00 | 0.00 | 0.00 | 41 | 1019.1 |
| 20260504040007 | 13 | 360 | 1.6 | 17.7 | 0.00 | 0.00 | 0.00 | 40 | 1019.2 |
| 20260504034506 | 13 | 360 | 3.2 | 8.0 | 0.00 | 0.00 | 0.00 | 40 | 1019.2 |
| 20260504033009 | 14 | 360 | 4.8 | 14.5 | 0.00 | 0.00 | 0.00 | 39 | 1019.1 |
| 20260504031504 | 14 | 360 | 3.2 | 8.0 | 0.00 | 0.00 | 0.00 | 39 | 1019.0 |
| 20260504030005 | 14 | 360 | 1.6 | 9.7 | 0.00 | 0.00 | 0.00 | 38 | 1019.0 |
| 20260504024505 | 14 | 360 | 4.8 | 9.7 | 0.00 | 0.00 | 0.00 | 37 | 1019.0 |
| 20260504023002 | 15 | 360 | 3.2 | 8.0 | 0.00 | 0.00 | 0.00 | 36 | 1019.0 |
| 20260504021502 | 14 | 360 | 0.0 | 8.0 | 0.00 | 0.00 | 0.00 | 36 | 1019.1 |
| 20260504020005 | 15 | 360 | 1.6 | 8.0 | 0.00 | 0.00 | 0.00 | 35 | 1019.0 |
| 20260504014604 | 15 | 360 | 3.2 | 12.9 | 0.00 | 0.00 | 0.00 | 35 | 1019.0 |
| 20260504013101 | 15 | 360 | 0.0 | 8.0 | 0.00 | 0.00 | 0.00 | 35 | 1018.8 |
| 20260504011601 | 15 | 360 | 4.8 | 12.9 | 0.00 | 0.00 | 0.00 | 34 | 1018.7 |
| 20260504004603 | 15 | 360 | 0.0 | 8.0 | 0.00 | 0.00 | 0.00 | 35 | 1018.3 |
| 20260504003057 | 15 | 360 | 1.6 | 8.0 | 0.00 | 0.00 | 0.00 | 34 | 1018.2 |
| 20260504001613 | 15 | 360 | 1.6 | 9.7 | 0.00 | 0.00 | 0.00 | 34 | 1017.9 |
| 20260504000056 | 15 | 360 | 0.0 | 12.9 | 0.00 | 0.00 | 0.00 | 33 | 1017.7 |
| 20260503234556 | 15 | 360 | 1.6 | 8.0 | 0.00 | 0.00 | 0.00 | 33 | 1017.6 |
| 20260503233055 | 15 | 360 | 3.2 | 19.3 | 0.00 | 0.00 | 0.00 | 32 | 1017.3 |
| 20260503231555 | 15 | 360 | 1.6 | 12.9 | 0.00 | 0.00 | 0.00 | 32 | 1017.2 |
| 20260503230055 | 15 | 360 | 1.6 | 8.0 | 0.00 | 0.00 | 0.00 | 31 | 1017.1 |
| 20260503224554 | 16 | 174 | 1.6 | 16.1 | 0.00 | 0.00 | 0.00 | 30 | 1017.1 |
| 20260503223054 | 16 | 294 | 4.8 | 19.3 | 0.00 | 0.00 | 0.00 | 29 | 1017.1 |
| 20260503221555 | 16 | 209 | 6.4 | 19.3 | 0.00 | 0.00 | 0.00 | 29 | 1016.7 |
| 20260503220107 | 16 | 194 | 3.2 | 17.7 | 0.00 | 0.00 | 0.00 | 29 | 1017.0 |
| 20260503214550 | 16 | 283 | 8.0 | 19.3 | 0.00 | 0.00 | 0.00 | 29 | 1016.9 |
| 20260503213050 | 15 | 109 | 4.8 | 17.7 | 0.00 | 0.00 | 0.00 | 30 | 1016.8 |
| 20260503211601 | 16 | 236 | 6.4 | 14.5 | 0.00 | 0.00 | 0.00 | 30 | 1016.9 |
| 20260503210054 | 15 | 198 | 3.2 | 16.1 | 0.00 | 0.00 | 0.00 | 31 | 1016.8 |
| 20260503204553 | 16 | 182 | 6.4 | 24.1 | 0.00 | 0.00 | 0.00 | 30 | 1016.7 |
| 20260503203044 | 15 | 325 | 3.2 | 17.7 | 0.00 | 0.00 | 0.00 | 31 | 1016.8 |
| 20260503201543 | 14 | 206 | 6.4 | 20.9 | 0.00 | 0.00 | 0.00 | 32 | 1016.9 |
| 20260503200040 | 15 | 187 | 3.2 | 17.7 | 0.00 | 0.00 | 0.00 | 33 | 1017.1 |
| 20260503194539 | 15 | 180 | 6.4 | 17.7 | 0.00 | 0.00 | 0.00 | 33 | 1017.0 |
| 20260503193042 | 14 | 360 | 11.3 | 22.5 | 0.00 | 0.00 | 0.00 | 34 | 1017.2 |
| 20260503191537 | 13 | 360 | 9.7 | 27.4 | 0.00 | 0.00 | 0.00 | 35 | 1017.4 |
| 20260503190036 | 13 | 360 | 6.4 | 27.4 | 0.00 | 0.00 | 0.00 | 35 | 1017.6 |
| 20260503184533 | 13 | 360 | 6.4 | 16.1 | 0.00 | 0.00 | 0.00 | 37 | 1017.8 |
| 20260503183038 | 13 | 360 | 3.2 | 19.3 | 0.00 | 0.00 | 0.00 | 38 | 1017.8 |
| 20260503181601 | 13 | 360 | 8.0 | 24.1 | 0.00 | 0.00 | 0.00 | 37 | 1017.8 |
| 20260503180029 | 12 | 360 | 4.8 | 27.4 | 0.00 | 0.00 | 0.00 | 39 | 1017.8 |
| 20260503174528 | 12 | 360 | 8.0 | 19.3 | 0.00 | 0.00 | 0.00 | 38 | 1017.9 |
| 20260503173042 | 12 | 360 | 9.7 | 25.7 | 0.00 | 0.00 | 0.00 | 40 | 1017.8 |
| 20260503171526 | 11 | 360 | 3.2 | 22.5 | 0.00 | 0.00 | 0.00 | 41 | 1018.0 |
| 20260503100107 | 7 | 360 | 3.2 | 19.3 | 0.00 | 0.00 | 0.00 | 56 | 1017.4 |
| 20260503081540 | 8 | 360 | 6.4 | 17.7 | 0.00 | 0.03 | 0.00 | 56 | 1017.2 |
| 20260503071536 | 9 | 360 | 1.6 | 16.1 | 0.00 | 0.03 | 0.00 | 53 | 1017.2 |